797  
ASGM40 PGUM 141610  
RWRGUM  
WEATHER ROUNDUP FOR THE MARIANAS  
NATIONAL WEATHER SERVICE TIYAN GU  
200 AM CHST WED AUG 15 2018  
 
GUZ001>004-141700-  
MARIANA ISLANDS-  
 
CITY SKY/WX TMP DP RH WIND PRES REMARKS
 
GUAM AIRPORT CLEAR 82 81 94 E9 29.70F HX 95  
ANDERSEN AFB PTCLDY 79 77 94 E14 29.71F  
ROTA AIRPORT NOT AVBL  
TINIAN AP NOT AVBL  
SAIPAN AP PTCLDY 82 79 89 E13 29.71S HX 93  
 

 
 
 
 
CLICK HERE TO GO TO PREVIOUS BULLETINS.

The Nexlab GU Page Main Text Page